Time,TemperatureF,DewpointF,PressureIn,WindDirection,WindDirectionDegrees,WindSpeedMPH,WindSpeedGustMPH,Humidity,HourlyPrecipIn,Conditions,Clouds,dailyrainin,SoftwareType,DateUTC
2013-06-11 00:00:00,78.7,72.4,29.92,SE,138,0.0,0.0,81,0.00,,SKC,0.00,VWS V14.01,2013-06-11 05:00:00,
2013-06-11 00:01:00,78.5,72.2,29.92,SE,138,0.0,0.0,81,0.00,,SKC,0.00,VWS V14.01,2013-06-11 05:01:00,
2013-06-11 00:06:00,78.4,72.1,29.93,SE,138,0.0,0.0,81,0.00,,SKC,0.00,VWS V14.01,2013-06-11 05:06:00,
2013-06-11 00:10:00,78.4,72.1,29.93,SE,138,0.0,0.0,81,0.00,,SKC,0.00,VWS V14.01,2013-06-11 05:10:00,
2013-06-11 00:11:00,78.2,72.3,29.93,SE,138,0.0,0.0,82,0.00,,SKC,0.00,VWS V14.01,2013-06-11 05:11:00,
2013-06-11 00:16:00,78.1,72.2,29.93,SE,138,0.0,0.0,82,0.00,,SKC,0.00,VWS V14.01,2013-06-11 05:16:00,
2013-06-11 00:20:00,78.1,72.2,29.93,SE,138,0.0,0.0,82,0.00,,SKC,0.00,VWS V14.01,2013-06-11 05:20:00,
2013-06-11 00:21:00,78.0,72.1,29.93,SE,138,0.0,0.0,82,0.00,,SKC,0.00,VWS V14.01,2013-06-11 05:21:00,
2013-06-11 00:26:00,77.8,72.2,29.93,SE,138,0.0,0.0,83,0.00,,SKC,0.00,VWS V14.01,2013-06-11 05:26:00,
2013-06-11 00:30:00,77.8,72.2,29.93,SE,138,0.0,0.0,83,0.00,,SKC,0.00,VWS V14.01,2013-06-11 05:30:00,
2013-06-11 00:31:00,77.7,72.1,29.93,SE,138,0.0,0.0,83,0.00,,SKC,0.00,VWS V14.01,2013-06-11 05:31:00,
2013-06-11 00:36:00,77.6,72.0,29.93,SE,138,0.0,0.0,83,0.00,,SKC,0.00,VWS V14.01,2013-06-11 05:36:00,
2013-06-11 00:40:00,77.6,72.0,29.93,SE,138,0.0,0.0,83,0.00,,SKC,0.00,VWS V14.01,2013-06-11 05:40:00,
2013-06-11 00:41:00,77.5,72.3,29.93,SE,138,0.0,0.0,84,0.00,,SKC,0.00,VWS V14.01,2013-06-11 05:41:00,
2013-06-11 00:46:00,77.4,72.2,29.93,SE,138,0.0,0.0,84,0.00,,SKC,0.00,VWS V14.01,2013-06-11 05:46:00,
2013-06-11 00:50:00,77.4,72.2,29.93,SE,138,0.0,0.0,84,0.00,,SKC,0.00,VWS V14.01,2013-06-11 05:50:00,
2013-06-11 00:51:00,77.3,72.1,29.94,SE,138,0.0,0.0,84,0.00,,SKC,0.00,VWS V14.01,2013-06-11 05:51:00,
2013-06-11 00:56:00,77.3,72.1,29.93,SE,138,0.0,0.0,84,0.00,,SKC,0.00,VWS V14.01,2013-06-11 05:56:00,
2013-06-11 01:00:00,77.3,72.1,29.93,SE,138,0.0,0.0,84,0.00,,SKC,0.00,VWS V14.01,2013-06-11 06:00:00,
2013-06-11 01:01:00,77.2,72.3,29.93,SE,138,0.0,0.0,85,0.00,,SKC,0.00,VWS V14.01,2013-06-11 06:01:00,
2013-06-11 01:06:00,77.2,72.3,29.94,SE,138,0.0,0.0,85,0.00,,SKC,0.00,VWS V14.01,2013-06-11 06:06:00,
2013-06-11 01:10:00,77.2,72.3,29.94,SE,138,0.0,0.0,85,0.00,,SKC,0.00,VWS V14.01,2013-06-11 06:10:00,
2013-06-11 01:11:00,77.2,72.3,29.94,SE,138,0.0,0.0,85,0.00,,SKC,0.00,VWS V14.01,2013-06-11 06:11:00,
2013-06-11 01:16:00,77.2,72.3,29.94,SE,138,0.0,0.0,85,0.00,,SKC,0.00,VWS V14.01,2013-06-11 06:16:00,
2013-06-11 01:20:00,77.2,72.3,29.94,SE,138,0.0,0.0,85,0.00,,SKC,0.00,VWS V14.01,2013-06-11 06:20:00,
2013-06-11 01:21:00,77.2,72.3,29.94,SE,138,0.0,0.0,85,0.00,,SKC,0.00,VWS V14.01,2013-06-11 06:21:00,
2013-06-11 01:25:00,77.2,72.7,29.94,SE,138,0.0,1.0,86,0.00,,SKC,0.00,VWS V14.01,2013-06-11 06:25:00,
2013-06-11 01:30:00,77.1,72.6,29.94,SE,138,0.0,0.0,86,0.00,,SKC,0.00,VWS V14.01,2013-06-11 06:30:00,
2013-06-11 01:35:00,77.1,72.6,29.93,SE,138,0.0,0.0,86,0.00,,SKC,0.00,VWS V14.01,2013-06-11 06:35:00,
2013-06-11 01:40:00,77.1,72.9,29.93,SE,138,0.0,0.0,87,0.00,,SKC,0.00,VWS V14.01,2013-06-11 06:40:00,
2013-06-11 01:45:00,77.0,72.8,29.93,SE,138,0.0,0.0,87,0.00,,SKC,0.00,VWS V14.01,2013-06-11 06:45:00,
2013-06-11 01:50:00,77.0,72.8,29.93,SE,138,0.0,1.0,87,0.00,,SKC,0.00,VWS V14.01,2013-06-11 06:50:00,
2013-06-11 01:55:00,77.0,72.8,29.93,SE,138,0.0,1.0,87,0.00,,SKC,0.00,VWS V14.01,2013-06-11 06:55:00,
2013-06-11 02:00:00,76.9,73.1,29.93,SE,138,0.0,0.0,88,0.00,,SKC,0.00,VWS V14.01,2013-06-11 07:00:00,
2013-06-11 02:05:00,76.9,73.1,29.93,SE,138,0.0,0.0,88,0.00,,SKC,0.00,VWS V14.01,2013-06-11 07:05:00,
2013-06-11 02:10:00,76.8,73.0,29.94,SE,138,0.0,0.0,88,0.00,,SKC,0.00,VWS V14.01,2013-06-11 07:10:00,
2013-06-11 02:15:00,76.7,72.9,29.94,SE,138,0.0,0.0,88,0.00,,SKC,0.00,VWS V14.01,2013-06-11 07:15:00,
2013-06-11 02:20:00,76.6,72.8,29.93,SE,138,0.0,0.0,88,0.00,,SKC,0.00,VWS V14.01,2013-06-11 07:20:00,
2013-06-11 02:25:00,76.5,72.7,29.94,SE,138,0.0,0.0,88,0.00,,SKC,0.00,VWS V14.01,2013-06-11 07:25:00,
2013-06-11 02:30:00,76.4,72.9,29.94,SE,138,0.0,0.0,89,0.00,,SKC,0.00,VWS V14.01,2013-06-11 07:30:00,
2013-06-11 02:35:00,76.4,72.9,29.94,SE,138,0.0,0.0,89,0.00,,SKC,0.00,VWS V14.01,2013-06-11 07:35:00,
2013-06-11 02:40:00,76.3,72.8,29.94,SE,138,0.0,0.0,89,0.00,,SKC,0.00,VWS V14.01,2013-06-11 07:40:00,
2013-06-11 02:45:00,76.2,72.7,29.93,SE,138,0.0,0.0,89,0.00,,SKC,0.00,VWS V14.01,2013-06-11 07:45:00,
2013-06-11 02:50:00,76.2,72.7,29.93,SE,138,0.0,0.0,89,0.00,,SKC,0.00,VWS V14.01,2013-06-11 07:50:00,
2013-06-11 02:55:00,76.1,72.6,29.93,SE,138,0.0,1.0,89,0.00,,SKC,0.00,VWS V14.01,2013-06-11 07:55:00,
2013-06-11 03:00:00,76.1,73.0,29.93,SE,138,0.0,4.0,90,0.00,,SKC,0.00,VWS V14.01,2013-06-11 08:00:00,
2013-06-11 03:05:00,76.0,72.9,29.93,SE,138,4.0,5.0,90,0.00,,SKC,0.00,VWS V14.01,2013-06-11 08:05:00,
2013-06-11 03:10:00,76.0,72.9,29.93,SE,138,0.0,0.0,90,0.00,,SKC,0.00,VWS V14.01,2013-06-11 08:10:00,
2013-06-11 03:15:00,75.9,72.8,29.93,SE,138,0.0,0.0,90,0.00,,SKC,0.00,VWS V14.01,2013-06-11 08:15:00,
2013-06-11 03:20:00,75.9,72.8,29.93,SE,138,0.0,0.0,90,0.00,,SKC,0.00,VWS V14.01,2013-06-11 08:20:00,
2013-06-11 03:25:00,75.8,73.0,29.93,SE,138,0.0,0.0,91,0.00,,SKC,0.00,VWS V14.01,2013-06-11 08:25:00,
2013-06-11 03:30:00,75.7,72.9,29.94,SE,138,0.0,0.0,91,0.00,,SKC,0.00,VWS V14.01,2013-06-11 08:30:00,
2013-06-11 03:35:00,75.7,72.9,29.93,SE,138,0.0,0.0,91,0.00,,SKC,0.00,VWS V14.01,2013-06-11 08:35:00,
2013-06-11 03:40:00,75.6,72.8,29.93,SE,138,0.0,0.0,91,0.00,,SKC,0.00,VWS V14.01,2013-06-11 08:40:00,
2013-06-11 03:45:00,75.5,72.7,29.93,SE,138,0.0,0.0,91,0.00,,SKC,0.00,VWS V14.01,2013-06-11 08:45:00,
2013-06-11 03:50:00,75.5,72.7,29.93,SE,138,0.0,0.0,91,0.00,,SKC,0.00,VWS V14.01,2013-06-11 08:50:00,
2013-06-11 03:55:00,75.4,72.6,29.93,SE,138,0.0,0.0,91,0.00,,SKC,0.00,VWS V14.01,2013-06-11 08:55:00,
2013-06-11 04:00:00,75.5,73.0,29.93,SE,138,0.0,0.0,92,0.00,,SKC,0.00,VWS V14.01,2013-06-11 09:00:00,
2013-06-11 04:05:00,75.4,72.9,29.93,SE,138,0.0,0.0,92,0.00,,SKC,0.00,VWS V14.01,2013-06-11 09:05:00,
2013-06-11 04:10:00,75.4,72.9,29.93,SE,138,0.0,0.0,92,0.00,,SKC,0.00,VWS V14.01,2013-06-11 09:10:00,
2013-06-11 04:15:00,75.4,72.9,29.93,SE,138,0.0,0.0,92,0.00,,SKC,0.00,VWS V14.01,2013-06-11 09:15:00,
2013-06-11 04:20:00,75.3,72.8,29.93,SE,138,0.0,6.0,92,0.00,,SKC,0.00,VWS V14.01,2013-06-11 09:20:00,
2013-06-11 04:25:00,75.3,72.8,29.93,SE,138,0.0,6.0,92,0.00,,SKC,0.00,VWS V14.01,2013-06-11 09:25:00,
2013-06-11 04:30:00,75.3,72.8,29.93,SE,138,0.0,0.0,92,0.00,,SKC,0.00,VWS V14.01,2013-06-11 09:30:00,
2013-06-11 04:35:00,75.3,72.8,29.93,SE,138,0.0,0.0,92,0.00,,SKC,0.00,VWS V14.01,2013-06-11 09:35:00,
2013-06-11 04:40:00,75.3,72.8,29.93,SE,138,0.0,0.0,92,0.00,,SKC,0.00,VWS V14.01,2013-06-11 09:40:00,
2013-06-11 04:45:00,75.2,72.7,29.93,SE,138,0.0,0.0,92,0.00,,SKC,0.00,VWS V14.01,2013-06-11 09:45:00,
2013-06-11 04:50:00,75.1,72.9,29.94,SE,138,0.0,0.0,93,0.00,,SKC,0.00,VWS V14.01,2013-06-11 09:50:00,
2013-06-11 04:55:00,75.0,72.8,29.94,SE,138,0.0,0.0,93,0.00,,SKC,0.00,VWS V14.01,2013-06-11 09:55:00,
2013-06-11 05:00:00,74.9,72.7,29.94,SE,138,0.0,0.0,93,0.00,,SKC,0.00,VWS V14.01,2013-06-11 10:00:00,
2013-06-11 05:05:00,74.8,72.6,29.94,SE,138,0.0,0.0,93,0.00,,SKC,0.00,VWS V14.01,2013-06-11 10:05:00,
2013-06-11 05:10:00,74.7,72.6,29.94,SE,138,0.0,0.0,93,0.00,,SKC,0.00,VWS V14.01,2013-06-11 10:10:00,
2013-06-11 05:15:00,74.6,72.4,29.94,SE,138,0.0,0.0,93,0.00,,SKC,0.00,VWS V14.01,2013-06-11 10:15:00,
2013-06-11 05:20:00,74.5,72.3,29.94,SE,138,0.0,0.0,93,0.00,,SKC,0.00,VWS V14.01,2013-06-11 10:20:00,
2013-06-11 05:25:00,74.4,72.2,29.94,SE,138,0.0,0.0,93,0.00,,SKC,0.00,VWS V14.01,2013-06-11 10:25:00,
2013-06-11 05:30:00,74.3,72.2,29.94,SE,138,0.0,0.0,93,0.00,,SKC,0.00,VWS V14.01,2013-06-11 10:30:00,
2013-06-11 05:35:00,74.2,72.1,29.94,SE,138,0.0,0.0,93,0.00,,SKC,0.00,VWS V14.01,2013-06-11 10:35:00,
2013-06-11 05:40:00,74.1,71.9,29.94,SE,138,0.0,0.0,93,0.00,,SKC,0.00,VWS V14.01,2013-06-11 10:40:00,
2013-06-11 05:45:00,74.0,71.8,29.94,SE,138,0.0,0.0,93,0.00,,SKC,0.00,VWS V14.01,2013-06-11 10:45:00,
2013-06-11 05:50:00,74.0,72.2,29.94,SE,138,0.0,0.0,94,0.00,,SKC,0.00,VWS V14.01,2013-06-11 10:50:00,
2013-06-11 05:55:00,73.9,72.1,29.95,SE,138,0.0,0.0,94,0.00,,SKC,0.00,VWS V14.01,2013-06-11 10:55:00,
2013-06-11 06:00:00,73.8,72.0,29.95,SE,138,0.0,0.0,94,0.00,,SKC,0.00,VWS V14.01,2013-06-11 11:00:00,
2013-06-11 06:05:00,73.8,72.0,29.95,SE,138,0.0,0.0,94,0.00,,SKC,0.00,VWS V14.01,2013-06-11 11:05:00,
2013-06-11 06:10:00,73.8,72.0,29.95,SE,138,0.0,0.0,94,0.00,,SKC,0.00,VWS V14.01,2013-06-11 11:10:00,
2013-06-11 06:15:00,73.8,72.0,29.95,SE,138,0.0,0.0,94,0.00,,SKC,0.00,VWS V14.01,2013-06-11 11:15:00,
2013-06-11 06:20:00,73.8,72.3,29.95,SE,138,0.0,0.0,95,0.00,,SKC,0.00,VWS V14.01,2013-06-11 11:20:00,
2013-06-11 06:25:00,73.9,72.4,29.95,SE,138,0.0,0.0,95,0.00,,SKC,0.00,VWS V14.01,2013-06-11 11:25:00,
2013-06-11 06:30:00,73.9,72.4,29.95,SE,138,0.0,0.0,95,0.00,,SKC,0.00,VWS V14.01,2013-06-11 11:30:00,
2013-06-11 06:35:00,73.9,72.4,29.96,SE,138,0.0,0.0,95,0.00,,SKC,0.00,VWS V14.01,2013-06-11 11:35:00,
2013-06-11 06:40:00,73.8,72.3,29.96,SE,138,0.0,0.0,95,0.00,,SKC,0.00,VWS V14.01,2013-06-11 11:40:00,
2013-06-11 06:45:00,73.8,72.3,29.96,SE,138,0.0,0.0,95,0.00,,SKC,0.00,VWS V14.01,2013-06-11 11:45:00,
2013-06-11 06:50:00,73.8,72.3,29.96,SE,138,0.0,0.0,95,0.00,,SKC,0.00,VWS V14.01,2013-06-11 11:50:00,
2013-06-11 06:55:00,73.8,72.3,29.96,SE,138,0.0,0.0,95,0.00,,SKC,0.00,VWS V14.01,2013-06-11 11:55:00,
2013-06-11 07:00:00,73.8,72.3,29.96,SE,138,0.0,0.0,95,0.00,,SKC,0.00,VWS V14.01,2013-06-11 12:00:00,
2013-06-11 07:05:00,73.7,72.2,29.96,SE,138,0.0,0.0,95,0.00,,SKC,0.00,VWS V14.01,2013-06-11 12:05:00,
2013-06-11 07:10:00,73.8,72.3,29.96,SE,138,0.0,0.0,95,0.00,,SKC,0.00,VWS V14.01,2013-06-11 12:10:00,
2013-06-11 07:15:00,73.8,72.3,29.96,SE,138,0.0,0.0,95,0.00,,SKC,0.00,VWS V14.01,2013-06-11 12:15:00,
2013-06-11 07:20:00,73.9,72.4,29.96,SE,138,0.0,0.0,95,0.00,,SKC,0.00,VWS V14.01,2013-06-11 12:20:00,
2013-06-11 07:25:00,74.0,72.5,29.96,SE,138,0.0,0.0,95,0.00,,SKC,0.00,VWS V14.01,2013-06-11 12:25:00,
2013-06-11 07:30:00,74.1,72.6,29.96,SE,138,0.0,0.0,95,0.00,,SKC,0.00,VWS V14.01,2013-06-11 12:30:00,
2013-06-11 07:35:00,74.3,72.8,29.96,SE,138,0.0,0.0,95,0.00,,SKC,0.00,VWS V14.01,2013-06-11 12:35:00,
2013-06-11 07:40:00,74.5,73.3,29.96,SE,138,0.0,0.0,96,0.00,,SKC,0.00,VWS V14.01,2013-06-11 12:40:00,
2013-06-11 07:45:00,74.7,73.2,29.96,SE,138,0.0,1.0,95,0.00,,SKC,0.00,VWS V14.01,2013-06-11 12:45:00,
2013-06-11 07:50:00,74.9,73.4,29.96,SE,138,0.0,0.0,95,0.00,,SKC,0.00,VWS V14.01,2013-06-11 12:50:00,
2013-06-11 07:55:00,75.2,73.7,29.96,SE,138,0.0,0.0,95,0.00,,SKC,0.00,VWS V14.01,2013-06-11 12:55:00,
2013-06-11 08:00:00,75.4,73.6,29.97,SE,138,0.0,0.0,94,0.00,,SKC,0.00,VWS V14.01,2013-06-11 13:00:00,
2013-06-11 08:05:00,75.6,73.8,29.97,SE,138,1.0,5.0,94,0.00,,SKC,0.00,VWS V14.01,2013-06-11 13:05:00,
2013-06-11 08:10:00,75.9,73.7,29.97,SE,138,0.0,0.0,93,0.00,,SKC,0.00,VWS V14.01,2013-06-11 13:10:00,
2013-06-11 08:15:00,76.3,73.8,29.97,SE,139,0.0,0.0,92,0.00,,SKC,0.00,VWS V14.01,2013-06-11 13:15:00,
2013-06-11 08:20:00,76.7,73.6,29.97,SE,144,0.0,0.0,90,0.00,,SKC,0.00,VWS V14.01,2013-06-11 13:20:00,
2013-06-11 08:25:00,77.0,73.8,29.97,SE,144,0.0,1.0,90,0.00,,SKC,0.00,VWS V14.01,2013-06-11 13:25:00,
2013-06-11 08:30:00,77.2,73.4,29.98,SE,144,0.0,3.0,88,0.00,,SKC,0.00,VWS V14.01,2013-06-11 13:30:00,
2013-06-11 08:35:00,77.3,73.1,29.98,SE,144,0.0,4.0,87,0.00,,SKC,0.00,VWS V14.01,2013-06-11 13:35:00,
2013-06-11 08:40:00,77.5,73.3,29.98,SE,144,0.0,0.0,87,0.00,,SKC,0.00,VWS V14.01,2013-06-11 13:40:00,
2013-06-11 08:45:00,77.9,73.7,29.98,SE,144,0.0,0.0,87,0.00,,SKC,0.00,VWS V14.01,2013-06-11 13:45:00,
2013-06-11 08:50:00,78.5,74.0,29.98,SE,144,0.0,0.0,86,0.00,,SKC,0.00,VWS V14.01,2013-06-11 13:50:00,
2013-06-11 08:55:00,79.0,73.8,29.98,SE,144,0.0,0.0,84,0.00,,SKC,0.00,VWS V14.01,2013-06-11 13:55:00,
2013-06-11 09:00:00,79.5,73.5,29.98,SE,144,0.0,0.0,82,0.00,,SKC,0.00,VWS V14.01,2013-06-11 14:00:00,
2013-06-11 09:05:00,80.0,73.7,29.98,SE,144,0.0,0.0,81,0.00,,SKC,0.00,VWS V14.01,2013-06-11 14:05:00,
2013-06-11 09:10:00,80.5,73.8,29.98,SE,144,0.0,0.0,80,0.00,,SKC,0.00,VWS V14.01,2013-06-11 14:10:00,
2013-06-11 09:15:00,81.1,73.6,29.98,SE,144,0.0,0.0,78,0.00,,SKC,0.00,VWS V14.01,2013-06-11 14:15:00,
2013-06-11 09:20:00,81.6,73.3,29.98,SE,144,0.0,1.0,76,0.00,,SKC,0.00,VWS V14.01,2013-06-11 14:20:00,
2013-06-11 09:25:00,81.8,73.5,29.99,SE,145,0.0,4.0,76,0.00,,SKC,0.00,VWS V14.01,2013-06-11 14:25:00,
2013-06-11 09:30:00,81.8,73.5,29.98,SE,145,0.0,2.0,76,0.00,,SKC,0.00,VWS V14.01,2013-06-11 14:30:00,
2013-06-11 09:35:00,82.1,74.2,29.98,SE,145,0.0,5.0,77,0.00,,SKC,0.00,VWS V14.01,2013-06-11 14:35:00,
2013-06-11 09:40:00,82.4,74.1,29.98,SE,145,0.0,1.0,76,0.00,,SKC,0.00,VWS V14.01,2013-06-11 14:40:00,
2013-06-11 09:45:00,82.7,73.6,29.98,SE,144,0.0,3.0,74,0.00,,SKC,0.00,VWS V14.01,2013-06-11 14:45:00,
2013-06-11 09:50:00,82.9,73.8,29.98,SE,144,0.0,1.0,74,0.00,,SKC,0.00,VWS V14.01,2013-06-11 14:50:00,
2013-06-11 09:55:00,83.0,73.5,29.98,SE,144,0.0,4.0,73,0.00,,SKC,0.00,VWS V14.01,2013-06-11 14:55:00,
2013-06-11 10:00:00,82.9,72.9,29.98,SE,144,0.0,1.0,72,0.00,,SKC,0.00,VWS V14.01,2013-06-11 15:00:00,
2013-06-11 10:05:00,83.0,73.5,29.98,SE,144,0.0,1.0,73,0.00,,SKC,0.00,VWS V14.01,2013-06-11 15:05:00,
2013-06-11 10:10:00,83.4,73.4,29.98,SE,145,0.0,4.0,72,0.00,,SKC,0.00,VWS V14.01,2013-06-11 15:10:00,
2013-06-11 10:15:00,84.0,74.0,29.98,SE,145,2.0,4.0,72,0.00,,SKC,0.00,VWS V14.01,2013-06-11 15:15:00,
2013-06-11 10:20:00,84.8,74.8,29.98,SE,145,0.0,5.0,72,0.00,,SKC,0.00,VWS V14.01,2013-06-11 15:20:00,
2013-06-11 10:25:00,85.2,73.4,29.98,SE,145,0.0,5.0,68,0.00,,SKC,0.00,VWS V14.01,2013-06-11 15:25:00,
2013-06-11 10:30:00,85.6,73.8,29.99,SE,145,0.0,1.0,68,0.00,,SKC,0.00,VWS V14.01,2013-06-11 15:30:00,
2013-06-11 10:35:00,86.0,73.8,29.98,SSE,149,0.0,1.0,67,0.00,,SKC,0.00,VWS V14.01,2013-06-11 15:35:00,
2013-06-11 10:40:00,86.3,74.1,29.98,SSE,149,0.0,4.0,67,0.00,,SKC,0.00,VWS V14.01,2013-06-11 15:40:00,
2013-06-11 10:45:00,86.5,73.8,29.99,SSE,149,0.0,5.0,66,0.00,,SKC,0.00,VWS V14.01,2013-06-11 15:45:00,
2013-06-11 10:50:00,86.3,73.6,29.99,SSE,156,0.0,4.0,66,0.00,,SKC,0.00,VWS V14.01,2013-06-11 15:50:00,
2013-06-11 10:55:00,86.1,73.4,29.99,SSE,156,1.0,4.0,66,0.00,,SKC,0.00,VWS V14.01,2013-06-11 15:55:00,
2013-06-11 11:00:00,86.2,73.5,29.99,SSE,157,0.0,6.0,66,0.00,,SKC,0.00,VWS V14.01,2013-06-11 16:00:00,
2013-06-11 11:05:00,86.5,73.3,29.99,SSE,150,0.0,7.0,65,0.00,,SKC,0.00,VWS V14.01,2013-06-11 16:05:00,
2013-06-11 11:10:00,86.7,74.4,29.99,SSE,150,0.0,4.0,67,0.00,,SKC,0.00,VWS V14.01,2013-06-11 16:10:00,
2013-06-11 11:15:00,86.6,73.0,29.99,SSE,150,0.0,4.0,64,0.00,,SKC,0.00,VWS V14.01,2013-06-11 16:15:00,
2013-06-11 11:20:00,86.6,73.4,29.99,SSE,150,0.0,4.0,65,0.00,,SKC,0.00,VWS V14.01,2013-06-11 16:20:00,
2013-06-11 11:25:00,86.7,73.1,29.99,SSE,153,0.0,8.0,64,0.00,,SKC,0.00,VWS V14.01,2013-06-11 16:25:00,
2013-06-11 11:30:00,86.4,71.8,30.00,SSE,153,0.0,6.0,62,0.00,,SKC,0.00,VWS V14.01,2013-06-11 16:30:00,
2013-06-11 11:35:00,85.9,72.3,29.99,SSE,153,0.0,6.0,64,0.00,,SKC,0.00,VWS V14.01,2013-06-11 16:35:00,
2013-06-11 11:40:00,86.0,71.5,29.99,SSE,156,0.0,8.0,62,0.00,,SKC,0.00,VWS V14.01,2013-06-11 16:40:00,
2013-06-11 11:45:00,86.5,72.9,30.00,SSE,156,0.0,8.0,64,0.00,,SKC,0.00,VWS V14.01,2013-06-11 16:45:00,
2013-06-11 11:50:00,86.9,72.3,30.00,SSE,155,0.0,6.0,62,0.00,,SKC,0.00,VWS V14.01,2013-06-11 16:50:00,
2013-06-11 11:55:00,87.3,73.2,29.99,SSE,153,0.0,6.0,63,0.00,,SKC,0.00,VWS V14.01,2013-06-11 16:55:00,
2013-06-11 12:00:00,87.8,73.2,29.99,SSE,154,0.0,8.0,62,0.00,,SKC,0.00,VWS V14.01,2013-06-11 17:00:00,
2013-06-11 12:05:00,88.2,73.6,29.99,SSE,153,1.0,8.0,62,0.00,,SKC,0.00,VWS V14.01,2013-06-11 17:05:00,
2013-06-11 12:10:00,88.5,72.8,29.99,SSE,152,0.0,5.0,60,0.00,,SKC,0.00,VWS V14.01,2013-06-11 17:10:00,
2013-06-11 12:15:00,88.5,72.8,29.99,SSE,151,0.0,5.0,60,0.00,,SKC,0.00,VWS V14.01,2013-06-11 17:15:00,
2013-06-11 12:20:00,88.4,73.2,29.99,SSE,151,0.0,3.0,61,0.00,,SKC,0.00,VWS V14.01,2013-06-11 17:20:00,
2013-06-11 12:25:00,88.2,73.1,29.99,SSE,152,1.0,5.0,61,0.00,,SKC,0.00,VWS V14.01,2013-06-11 17:25:00,
2013-06-11 12:30:00,87.8,73.2,29.99,SSE,153,0.0,2.0,62,0.00,,SKC,0.00,VWS V14.01,2013-06-11 17:30:00,
2013-06-11 12:35:00,87.9,73.3,29.99,SSE,153,2.0,2.0,62,0.00,,SKC,0.00,VWS V14.01,2013-06-11 17:35:00,
2013-06-11 12:40:00,88.1,73.4,29.99,SSE,154,4.0,4.0,62,0.00,,SKC,0.00,VWS V14.01,2013-06-11 17:40:00,
2013-06-11 12:45:00,88.1,74.4,29.98,SSE,153,1.0,5.0,64,0.00,,SKC,0.00,VWS V14.01,2013-06-11 17:45:00,
2013-06-11 12:50:00,88.2,72.6,29.99,SSE,155,0.0,7.0,60,0.00,,SKC,0.00,VWS V14.01,2013-06-11 17:50:00,
2013-06-11 12:55:00,88.4,73.2,29.98,SSE,155,0.0,7.0,61,0.00,,SKC,0.00,VWS V14.01,2013-06-11 17:55:00,
2013-06-11 13:00:00,88.6,72.9,29.98,SSE,155,0.0,1.0,60,0.00,,SKC,0.00,VWS V14.01,2013-06-11 18:00:00,
2013-06-11 13:05:00,88.8,73.1,29.98,SSE,155,0.0,9.0,60,0.00,,SKC,0.00,VWS V14.01,2013-06-11 18:05:00,
2013-06-11 13:10:00,89.1,73.9,29.98,SSE,155,0.0,5.0,61,0.00,,SKC,0.00,VWS V14.01,2013-06-11 18:10:00,
2013-06-11 13:15:00,89.3,72.6,29.98,SSE,152,0.0,5.0,58,0.00,,SKC,0.00,VWS V14.01,2013-06-11 18:15:00,
2013-06-11 13:20:00,89.6,72.4,29.98,SSE,164,0.0,8.0,57,0.00,,SKC,0.00,VWS V14.01,2013-06-11 18:20:00,
2013-06-11 13:25:00,89.7,71.9,29.98,SSE,164,0.0,8.0,56,0.00,,SKC,0.00,VWS V14.01,2013-06-11 18:25:00,
2013-06-11 13:30:00,89.6,71.8,29.97,SSE,166,0.0,6.0,56,0.00,,SKC,0.00,VWS V14.01,2013-06-11 18:30:00,
2013-06-11 13:35:00,89.5,71.7,29.97,SSE,166,0.0,6.0,56,0.00,,SKC,0.00,VWS V14.01,2013-06-11 18:35:00,
2013-06-11 13:40:00,89.6,71.8,29.97,SSE,166,0.0,2.0,56,0.00,,SKC,0.00,VWS V14.01,2013-06-11 18:40:00,
2013-06-11 13:45:00,89.7,71.9,29.97,SSE,167,1.0,7.0,56,0.00,,SKC,0.00,VWS V14.01,2013-06-11 18:45:00,
2013-06-11 13:50:00,89.9,72.6,29.96,South,169,0.0,5.0,57,0.00,,SKC,0.00,VWS V14.01,2013-06-11 18:50:00,
2013-06-11 13:55:00,90.3,72.5,29.97,SSE,168,0.0,6.0,56,0.00,,SKC,0.00,VWS V14.01,2013-06-11 18:55:00,
2013-06-11 14:00:00,90.2,71.9,29.96,SSE,168,0.0,1.0,55,0.00,,SKC,0.00,VWS V14.01,2013-06-11 19:00:00,
2013-06-11 14:05:00,90.0,72.7,29.96,SSE,168,1.0,5.0,57,0.00,,SKC,0.00,VWS V14.01,2013-06-11 19:05:00,
2013-06-11 14:10:00,90.3,71.9,29.96,South,169,0.0,5.0,55,0.00,,SKC,0.00,VWS V14.01,2013-06-11 19:10:00,
2013-06-11 14:15:00,90.6,72.2,29.96,South,169,0.0,6.0,55,0.00,,SKC,0.00,VWS V14.01,2013-06-11 19:15:00,
2013-06-11 14:20:00,90.8,72.9,29.95,South,169,0.0,2.0,56,0.00,,SKC,0.00,VWS V14.01,2013-06-11 19:20:00,
2013-06-11 14:25:00,90.8,72.4,29.95,South,169,0.0,4.0,55,0.00,,SKC,0.00,VWS V14.01,2013-06-11 19:25:00,
2013-06-11 14:30:00,90.6,72.2,29.95,South,169,0.0,3.0,55,0.00,,SKC,0.00,VWS V14.01,2013-06-11 19:30:00,
2013-06-11 14:35:00,90.4,72.6,29.95,South,169,0.0,3.0,56,0.00,,SKC,0.00,VWS V14.01,2013-06-11 19:35:00,
2013-06-11 14:40:00,90.7,73.4,29.94,South,169,0.0,0.0,57,0.00,,SKC,0.00,VWS V14.01,2013-06-11 19:40:00,
2013-06-11 14:45:00,91.1,72.7,29.95,SSE,167,0.0,3.0,55,0.00,,SKC,0.00,VWS V14.01,2013-06-11 19:45:00,
2013-06-11 14:50:00,91.6,74.2,29.94,SSE,167,0.0,2.0,57,0.00,,SKC,0.00,VWS V14.01,2013-06-11 19:50:00,
2013-06-11 14:55:00,92.0,73.5,29.94,SSE,167,3.0,4.0,55,0.00,,SKC,0.00,VWS V14.01,2013-06-11 19:55:00,
2013-06-11 15:00:00,92.4,73.3,29.94,SSE,167,0.0,3.0,54,0.00,,SKC,0.00,VWS V14.01,2013-06-11 20:00:00,
2013-06-11 15:05:00,92.7,73.1,29.94,South,170,0.0,9.0,53,0.00,,SKC,0.00,VWS V14.01,2013-06-11 20:05:00,
2013-06-11 15:10:00,92.8,73.2,29.93,South,170,0.0,2.0,53,0.00,,SKC,0.00,VWS V14.01,2013-06-11 20:10:00,
2013-06-11 15:15:00,92.9,73.3,29.93,South,169,0.0,4.0,53,0.00,,SKC,0.00,VWS V14.01,2013-06-11 20:15:00,
2013-06-11 15:20:00,92.9,73.3,29.93,South,169,0.0,5.0,53,0.00,,SKC,0.00,VWS V14.01,2013-06-11 20:20:00,
2013-06-11 15:25:00,92.6,73.0,29.93,South,169,0.0,5.0,53,0.00,,SKC,0.00,VWS V14.01,2013-06-11 20:25:00,
2013-06-11 15:30:00,92.2,72.6,29.93,SSE,167,2.0,6.0,53,0.00,,SKC,0.00,VWS V14.01,2013-06-11 20:30:00,
2013-06-11 15:35:00,92.3,72.7,29.93,SSE,168,0.0,6.0,53,0.00,,SKC,0.00,VWS V14.01,2013-06-11 20:35:00,
2013-06-11 15:40:00,92.7,73.6,29.93,SSE,167,2.0,3.0,54,0.00,,SKC,0.00,VWS V14.01,2013-06-11 20:40:00,
2013-06-11 15:45:00,93.1,73.4,29.93,SSE,165,0.0,5.0,53,0.00,,SKC,0.00,VWS V14.01,2013-06-11 20:45:00,
2013-06-11 15:50:00,93.5,73.2,29.93,SSE,165,0.0,4.0,52,0.00,,SKC,0.00,VWS V14.01,2013-06-11 20:50:00,
2013-06-11 15:55:00,93.9,73.6,29.94,SSE,165,0.0,4.0,52,0.00,,SKC,0.00,VWS V14.01,2013-06-11 20:55:00,
2013-06-11 16:00:00,94.2,72.7,29.94,SSE,163,0.0,5.0,50,0.00,,SKC,0.00,VWS V14.01,2013-06-11 21:00:00,
2013-06-11 16:05:00,93.6,73.9,29.97,ESE,105,10.0,20.0,53,0.00,,SKC,0.00,VWS V14.01,2013-06-11 21:05:00,
2013-06-11 16:10:00,85.4,70.9,29.97,SSE,155,16.0,21.0,62,0.00,,SKC,0.00,VWS V14.01,2013-06-11 21:10:00,
2013-06-11 16:15:00,78.7,67.7,29.98,SSE,165,23.0,29.0,69,0.05,,SKC,0.05,VWS V14.01,2013-06-11 21:15:00,
2013-06-11 16:20:00,74.5,66.8,29.98,South,173,9.0,23.0,77,0.19,,SKC,0.19,VWS V14.01,2013-06-11 21:20:00,
2013-06-11 16:25:00,72.6,66.8,29.99,SSE,165,0.0,23.0,82,0.28,,SKC,0.28,VWS V14.01,2013-06-11 21:25:00,
2013-06-11 16:30:00,71.7,66.6,29.98,SSE,165,0.0,0.0,84,0.32,,SKC,0.32,VWS V14.01,2013-06-11 21:30:00,
2013-06-11 16:35:00,71.1,66.7,29.98,SSE,165,0.0,0.0,86,0.36,,SKC,0.36,VWS V14.01,2013-06-11 21:35:00,
2013-06-11 16:40:00,70.7,66.7,29.97,SSE,165,0.0,0.0,87,0.38,,SKC,0.38,VWS V14.01,2013-06-11 21:40:00,
2013-06-11 16:45:00,70.6,67.2,29.97,SSE,165,0.0,0.0,89,0.39,,SKC,0.39,VWS V14.01,2013-06-11 21:45:00,
2013-06-11 16:50:00,70.4,67.0,29.96,SSE,165,0.0,0.0,89,0.40,,SKC,0.40,VWS V14.01,2013-06-11 21:50:00,
2013-06-11 16:55:00,70.4,67.3,29.96,SSE,165,0.0,0.0,90,0.40,,SKC,0.40,VWS V14.01,2013-06-11 21:55:00,
2013-06-11 17:00:00,70.5,67.8,29.96,SSE,165,0.0,3.0,91,0.40,,SKC,0.40,VWS V14.01,2013-06-11 22:00:00,
2013-06-11 17:05:00,70.7,67.9,29.96,SSE,167,0.0,3.0,91,0.40,,SKC,0.40,VWS V14.01,2013-06-11 22:05:00,
2013-06-11 17:10:00,70.9,68.5,29.96,SSE,167,0.0,4.0,92,0.40,,SKC,0.40,VWS V14.01,2013-06-11 22:10:00,
2013-06-11 17:15:00,71.1,68.7,29.95,SSE,167,0.0,4.0,92,0.40,,SKC,0.40,VWS V14.01,2013-06-11 22:15:00,
2013-06-11 17:20:00,71.3,69.2,29.95,SSE,167,0.0,0.0,93,0.35,,SKC,0.41,VWS V14.01,2013-06-11 22:20:00,
2013-06-11 17:25:00,71.6,69.5,29.94,SSE,167,0.0,0.0,93,0.36,,SKC,0.42,VWS V14.01,2013-06-11 22:25:00,
2013-06-11 17:30:00,71.8,69.7,29.95,SSE,167,0.0,0.0,93,0.14,,SKC,0.42,VWS V14.01,2013-06-11 22:30:00,
2013-06-11 17:35:00,71.9,69.8,29.95,SSE,167,0.0,0.0,93,0.14,,SKC,0.42,VWS V14.01,2013-06-11 22:35:00,
2013-06-11 17:40:00,72.1,70.0,29.95,SSE,167,0.0,0.0,93,0.05,,SKC,0.42,VWS V14.01,2013-06-11 22:40:00,
2013-06-11 17:45:00,72.2,70.4,29.95,SSE,167,0.0,0.0,94,0.05,,SKC,0.42,VWS V14.01,2013-06-11 22:45:00,
2013-06-11 17:50:00,72.4,70.6,29.95,SSE,167,0.0,0.0,94,0.02,,SKC,0.42,VWS V14.01,2013-06-11 22:50:00,
2013-06-11 17:55:00,72.4,70.3,29.94,SSE,167,0.0,0.0,93,0.03,,SKC,0.43,VWS V14.01,2013-06-11 22:55:00,
2013-06-11 18:00:00,72.4,70.3,29.94,SSE,167,0.0,0.0,93,0.03,,SKC,0.43,VWS V14.01,2013-06-11 23:00:00,
2013-06-11 18:05:00,72.3,69.8,29.94,SSE,167,0.0,0.0,92,0.03,,SKC,0.43,VWS V14.01,2013-06-11 23:05:00,
2013-06-11 18:09:00,72.4,69.9,29.94,SSE,167,0.0,0.0,92,0.03,,SKC,0.43,VWS V14.01,2013-06-11 23:09:00,
2013-06-11 18:10:00,72.3,69.8,29.94,SSE,167,0.0,0.0,92,0.03,,SKC,0.43,VWS V14.01,2013-06-11 23:10:00,
2013-06-11 18:14:00,72.5,70.1,29.93,SSE,167,0.0,0.0,92,0.03,,SKC,0.43,VWS V14.01,2013-06-11 23:14:00,
2013-06-11 18:19:00,72.6,69.8,29.93,SSE,167,0.0,0.0,91,0.02,,SKC,0.43,VWS V14.01,2013-06-11 23:19:00,
2013-06-11 18:20:00,72.5,70.1,29.93,SSE,167,0.0,0.0,92,0.03,,SKC,0.43,VWS V14.01,2013-06-11 23:20:00,
2013-06-11 18:24:00,72.8,70.0,29.93,SSE,167,0.0,1.0,91,0.02,,SKC,0.43,VWS V14.01,2013-06-11 23:24:00,
2013-06-11 18:29:00,73.0,70.2,29.93,SSE,167,0.0,0.0,91,0.01,,SKC,0.43,VWS V14.01,2013-06-11 23:29:00,
2013-06-11 18:30:00,72.9,70.1,29.93,SSE,167,0.0,1.0,91,0.02,,SKC,0.43,VWS V14.01,2013-06-11 23:30:00,
2013-06-11 18:34:00,73.1,70.3,29.93,SSE,167,0.0,0.0,91,0.01,,SKC,0.43,VWS V14.01,2013-06-11 23:34:00,
2013-06-11 18:39:00,73.2,70.4,29.93,SSE,167,0.0,0.0,91,0.01,,SKC,0.43,VWS V14.01,2013-06-11 23:39:00,
2013-06-11 18:40:00,73.1,70.3,29.93,SSE,167,0.0,0.0,91,0.01,,SKC,0.43,VWS V14.01,2013-06-11 23:40:00,
2013-06-11 18:44:00,73.3,70.5,29.93,SSE,167,0.0,0.0,91,0.01,,SKC,0.43,VWS V14.01,2013-06-11 23:44:00,
2013-06-11 18:49:00,73.4,70.9,29.93,SSE,167,0.0,0.0,92,0.01,,SKC,0.43,VWS V14.01,2013-06-11 23:49:00,
2013-06-11 18:50:00,73.3,70.5,29.93,SSE,167,0.0,0.0,91,0.01,,SKC,0.43,VWS V14.01,2013-06-11 23:50:00,
2013-06-11 18:54:00,73.5,71.0,29.94,SSE,167,0.0,0.0,92,0.01,,SKC,0.43,VWS V14.01,2013-06-11 23:54:00,
2013-06-11 18:59:00,73.6,71.1,29.94,SSE,167,0.0,0.0,92,0.00,,SKC,0.43,VWS V14.01,2013-06-11 23:59:00,
2013-06-11 19:00:00,73.6,71.1,29.94,SSE,167,0.0,0.0,92,0.01,,SKC,0.43,VWS V14.01,2013-06-12 00:00:00,
2013-06-11 19:04:00,73.7,70.9,29.93,SSE,167,0.0,0.0,91,0.00,,SKC,0.43,VWS V14.01,2013-06-12 00:04:00,
2013-06-11 19:09:00,73.8,71.0,29.93,SSE,167,0.0,0.0,91,0.00,,SKC,0.43,VWS V14.01,2013-06-12 00:09:00,
2013-06-11 19:10:00,73.7,70.9,29.93,SSE,167,0.0,0.0,91,0.00,,SKC,0.43,VWS V14.01,2013-06-12 00:10:00,
2013-06-11 19:14:00,73.9,71.1,29.93,SSE,167,0.0,0.0,91,0.00,,SKC,0.43,VWS V14.01,2013-06-12 00:14:00,
2013-06-11 19:19:00,74.1,71.3,29.93,SSE,167,0.0,0.0,91,0.00,,SKC,0.43,VWS V14.01,2013-06-12 00:19:00,
2013-06-11 19:20:00,74.0,71.2,29.93,SSE,167,0.0,0.0,91,0.00,,SKC,0.43,VWS V14.01,2013-06-12 00:20:00,
2013-06-11 19:24:00,74.2,71.7,29.93,SSE,167,0.0,0.0,92,0.00,,SKC,0.43,VWS V14.01,2013-06-12 00:24:00,
2013-06-11 19:29:00,74.4,71.9,29.93,SSE,167,0.0,0.0,92,0.00,,SKC,0.43,VWS V14.01,2013-06-12 00:29:00,
2013-06-11 19:30:00,74.3,71.8,29.93,SSE,167,0.0,0.0,92,0.00,,SKC,0.43,VWS V14.01,2013-06-12 00:30:00,
2013-06-11 19:34:00,74.6,72.1,29.93,SSE,167,0.0,0.0,92,0.00,,SKC,0.43,VWS V14.01,2013-06-12 00:34:00,
2013-06-11 19:39:00,74.7,72.2,29.93,SSE,167,0.0,0.0,92,0.00,,SKC,0.43,VWS V14.01,2013-06-12 00:39:00,
2013-06-11 19:40:00,74.6,72.1,29.93,SSE,167,0.0,0.0,92,0.00,,SKC,0.43,VWS V14.01,2013-06-12 00:40:00,
2013-06-11 19:44:00,74.7,71.9,29.93,SSE,167,0.0,0.0,91,0.00,,SKC,0.43,VWS V14.01,2013-06-12 00:44:00,
2013-06-11 19:49:00,74.7,71.9,29.93,SSE,167,0.0,0.0,91,0.00,,SKC,0.43,VWS V14.01,2013-06-12 00:49:00,
2013-06-11 19:50:00,74.8,72.3,29.93,SSE,167,0.0,0.0,92,0.00,,SKC,0.43,VWS V14.01,2013-06-12 00:50:00,
2013-06-11 19:54:00,74.8,72.3,29.93,SSE,167,0.0,0.0,92,0.00,,SKC,0.43,VWS V14.01,2013-06-12 00:54:00,
2013-06-11 19:59:00,74.8,72.3,29.93,SSE,167,0.0,0.0,92,0.00,,SKC,0.43,VWS V14.01,2013-06-12 00:59:00,
2013-06-11 20:00:00,74.8,72.3,29.93,SSE,167,0.0,0.0,92,0.00,,SKC,0.43,VWS V14.01,2013-06-12 01:00:00,
2013-06-11 20:04:00,74.8,72.3,29.93,SSE,167,0.0,0.0,92,0.00,,SKC,0.43,VWS V14.01,2013-06-12 01:04:00,
2013-06-11 20:09:00,74.8,72.3,29.93,SSE,167,0.0,0.0,92,0.00,,SKC,0.43,VWS V14.01,2013-06-12 01:09:00,
2013-06-11 20:10:00,74.8,72.3,29.93,SSE,167,0.0,0.0,92,0.00,,SKC,0.43,VWS V14.01,2013-06-12 01:10:00,
2013-06-11 20:14:00,74.8,72.3,29.93,SSE,167,0.0,0.0,92,0.00,,SKC,0.43,VWS V14.01,2013-06-12 01:14:00,
2013-06-11 20:19:00,74.7,72.2,29.93,SSE,167,0.0,0.0,92,0.00,,SKC,0.43,VWS V14.01,2013-06-12 01:19:00,
2013-06-11 20:20:00,74.8,72.3,29.93,SSE,167,0.0,0.0,92,0.00,,SKC,0.43,VWS V14.01,2013-06-12 01:20:00,
2013-06-11 20:24:00,74.6,72.1,29.93,SSE,167,0.0,1.0,92,0.00,,SKC,0.43,VWS V14.01,2013-06-12 01:24:00,
2013-06-11 20:29:00,74.4,71.9,29.93,SSE,167,0.0,0.0,92,0.00,,SKC,0.43,VWS V14.01,2013-06-12 01:29:00,
2013-06-11 20:30:00,74.5,72.0,29.93,SSE,167,0.0,1.0,92,0.00,,SKC,0.43,VWS V14.01,2013-06-12 01:30:00,
2013-06-11 20:34:00,74.3,71.8,29.94,SSE,167,0.0,0.0,92,0.00,,SKC,0.43,VWS V14.01,2013-06-12 01:34:00,
2013-06-11 20:39:00,74.2,71.7,29.94,SSE,167,0.0,0.0,92,0.00,,SKC,0.43,VWS V14.01,2013-06-12 01:39:00,
2013-06-11 20:40:00,74.2,71.7,29.94,SSE,167,0.0,0.0,92,0.00,,SKC,0.43,VWS V14.01,2013-06-12 01:40:00,
2013-06-11 20:44:00,74.0,71.2,29.94,SSE,167,0.0,0.0,91,0.00,,SKC,0.43,VWS V14.01,2013-06-12 01:44:00,
2013-06-11 20:49:00,73.9,71.1,29.94,SSE,167,0.0,0.0,91,0.00,,SKC,0.43,VWS V14.01,2013-06-12 01:49:00,
2013-06-11 20:50:00,74.0,71.2,29.94,SSE,167,0.0,0.0,91,0.00,,SKC,0.43,VWS V14.01,2013-06-12 01:50:00,
2013-06-11 20:54:00,73.8,71.3,29.94,SSE,167,0.0,0.0,92,0.00,,SKC,0.43,VWS V14.01,2013-06-12 01:54:00,
2013-06-11 20:59:00,73.7,71.2,29.94,SSE,167,0.0,0.0,92,0.00,,SKC,0.43,VWS V14.01,2013-06-12 01:59:00,
2013-06-11 21:00:00,73.8,71.3,29.94,SSE,167,0.0,0.0,92,0.00,,SKC,0.43,VWS V14.01,2013-06-12 02:00:00,
2013-06-11 21:04:00,73.6,71.1,29.94,SSE,167,0.0,0.0,92,0.00,,SKC,0.43,VWS V14.01,2013-06-12 02:04:00,
2013-06-11 21:09:00,73.5,71.0,29.94,SSE,167,0.0,0.0,92,0.00,,SKC,0.43,VWS V14.01,2013-06-12 02:09:00,
2013-06-11 21:10:00,73.6,71.1,29.94,SSE,167,0.0,0.0,92,0.00,,SKC,0.43,VWS V14.01,2013-06-12 02:10:00,
2013-06-11 21:14:00,73.4,70.9,29.94,SSE,167,0.0,0.0,92,0.00,,SKC,0.43,VWS V14.01,2013-06-12 02:14:00,
2013-06-11 21:19:00,73.4,70.9,29.94,SSE,167,0.0,0.0,92,0.00,,SKC,0.43,VWS V14.01,2013-06-12 02:19:00,
2013-06-11 21:20:00,73.4,70.9,29.94,SSE,167,0.0,0.0,92,0.00,,SKC,0.43,VWS V14.01,2013-06-12 02:20:00,
2013-06-11 21:24:00,73.4,70.9,29.94,SSE,167,0.0,0.0,92,0.00,,SKC,0.43,VWS V14.01,2013-06-12 02:24:00,
2013-06-11 21:29:00,73.4,70.9,29.94,SSE,167,0.0,0.0,92,0.00,,SKC,0.43,VWS V14.01,2013-06-12 02:29:00,
2013-06-11 21:30:00,73.4,70.9,29.94,SSE,167,0.0,0.0,92,0.00,,SKC,0.43,VWS V14.01,2013-06-12 02:30:00,
2013-06-11 21:34:00,73.3,70.8,29.95,SSE,167,0.0,0.0,92,0.00,,SKC,0.43,VWS V14.01,2013-06-12 02:34:00,
2013-06-11 21:39:00,73.3,70.8,29.95,SSE,167,0.0,0.0,92,0.00,,SKC,0.43,VWS V14.01,2013-06-12 02:39:00,
2013-06-11 21:40:00,73.3,70.8,29.95,SSE,167,0.0,0.0,92,0.00,,SKC,0.43,VWS V14.01,2013-06-12 02:40:00,
2013-06-11 21:44:00,73.2,70.7,29.95,SSE,167,0.0,0.0,92,0.00,,SKC,0.43,VWS V14.01,2013-06-12 02:44:00,
2013-06-11 21:49:00,73.2,70.7,29.95,SSE,167,0.0,0.0,92,0.00,,SKC,0.43,VWS V14.01,2013-06-12 02:49:00,
2013-06-11 21:50:00,73.2,70.7,29.95,SSE,167,0.0,0.0,92,0.00,,SKC,0.43,VWS V14.01,2013-06-12 02:50:00,
2013-06-11 21:54:00,73.1,70.6,29.95,SSE,167,0.0,0.0,92,0.00,,SKC,0.43,VWS V14.01,2013-06-12 02:54:00,
2013-06-11 21:59:00,73.1,70.6,29.95,SSE,167,0.0,0.0,92,0.00,,SKC,0.43,VWS V14.01,2013-06-12 02:59:00,
2013-06-11 22:00:00,73.1,70.6,29.95,SSE,167,0.0,0.0,92,0.00,,SKC,0.43,VWS V14.01,2013-06-12 03:00:00,
2013-06-11 22:04:00,73.2,70.7,29.95,SSE,167,0.0,0.0,92,0.00,,SKC,0.43,VWS V14.01,2013-06-12 03:04:00,
2013-06-11 22:09:00,73.1,70.6,29.95,SSE,167,0.0,0.0,92,0.00,,SKC,0.43,VWS V14.01,2013-06-12 03:09:00,
2013-06-11 22:10:00,73.2,70.7,29.95,SSE,167,0.0,0.0,92,0.00,,SKC,0.43,VWS V14.01,2013-06-12 03:10:00,
2013-06-11 22:14:00,73.1,70.3,29.96,SSE,167,0.0,0.0,91,0.00,,SKC,0.43,VWS V14.01,2013-06-12 03:14:00,
2013-06-11 22:19:00,73.0,70.2,29.96,SSE,167,0.0,0.0,91,0.00,,SKC,0.43,VWS V14.01,2013-06-12 03:19:00,
2013-06-11 22:20:00,73.1,70.3,29.96,SSE,167,0.0,0.0,91,0.00,,SKC,0.43,VWS V14.01,2013-06-12 03:20:00,
2013-06-11 22:24:00,73.0,70.2,29.96,SSE,167,0.0,0.0,91,0.00,,SKC,0.43,VWS V14.01,2013-06-12 03:24:00,
2013-06-11 22:29:00,72.9,70.1,29.97,SSE,167,0.0,0.0,91,0.00,,SKC,0.43,VWS V14.01,2013-06-12 03:29:00,
2013-06-11 22:30:00,73.0,70.2,29.96,SSE,167,0.0,0.0,91,0.00,,SKC,0.43,VWS V14.01,2013-06-12 03:30:00,
2013-06-11 22:34:00,72.8,70.0,29.97,SSE,167,0.0,0.0,91,0.00,,SKC,0.43,VWS V14.01,2013-06-12 03:34:00,
2013-06-11 22:39:00,72.8,70.3,29.97,SSE,167,0.0,0.0,92,0.00,,SKC,0.43,VWS V14.01,2013-06-12 03:39:00,
2013-06-11 22:40:00,72.8,70.3,29.97,SSE,167,0.0,0.0,92,0.00,,SKC,0.43,VWS V14.01,2013-06-12 03:40:00,
2013-06-11 22:44:00,72.8,70.3,29.97,SSE,167,0.0,0.0,92,0.00,,SKC,0.43,VWS V14.01,2013-06-12 03:44:00,
2013-06-11 22:49:00,72.8,70.0,29.97,SSE,167,0.0,0.0,91,0.00,,SKC,0.43,VWS V14.01,2013-06-12 03:49:00,
2013-06-11 22:50:00,72.8,70.3,29.97,SSE,167,0.0,0.0,92,0.00,,SKC,0.43,VWS V14.01,2013-06-12 03:50:00,
2013-06-11 22:54:00,72.7,69.9,29.97,SSE,167,0.0,0.0,91,0.00,,SKC,0.43,VWS V14.01,2013-06-12 03:54:00,
2013-06-11 22:59:00,72.6,69.8,29.97,SSE,167,0.0,0.0,91,0.00,,SKC,0.43,VWS V14.01,2013-06-12 03:59:00,
2013-06-11 23:00:00,72.6,69.8,29.97,SSE,167,0.0,0.0,91,0.00,,SKC,0.43,VWS V14.01,2013-06-12 04:00:00,
2013-06-11 23:01:00,72.6,69.8,29.97,SSE,167,0.0,0.0,91,0.00,,SKC,0.43,VWS V14.01,2013-06-12 04:01:00,
2013-06-11 23:06:00,72.6,70.2,29.97,SSE,167,0.0,0.0,92,0.00,,SKC,0.43,VWS V14.01,2013-06-12 04:06:00,
2013-06-11 23:10:00,72.6,70.2,29.97,SSE,167,0.0,0.0,92,0.00,,SKC,0.43,VWS V14.01,2013-06-12 04:10:00,
2013-06-11 23:11:00,72.5,70.1,29.97,SSE,167,0.0,0.0,92,0.00,,SKC,0.43,VWS V14.01,2013-06-12 04:11:00,
2013-06-11 23:16:00,72.5,70.1,29.98,SSE,167,0.0,0.0,92,0.00,,SKC,0.43,VWS V14.01,2013-06-12 04:16:00,
2013-06-11 23:20:00,72.5,70.1,29.97,SSE,167,0.0,0.0,92,0.00,,SKC,0.43,VWS V14.01,2013-06-12 04:20:00,
2013-06-11 23:21:00,72.4,69.9,29.97,SSE,167,0.0,0.0,92,0.00,,SKC,0.43,VWS V14.01,2013-06-12 04:21:00,
2013-06-11 23:26:00,72.2,69.8,29.97,SSE,167,0.0,0.0,92,0.00,,SKC,0.43,VWS V14.01,2013-06-12 04:26:00,
2013-06-11 23:30:00,72.2,69.8,29.98,SSE,167,0.0,0.0,92,0.00,,SKC,0.43,VWS V14.01,2013-06-12 04:30:00,
2013-06-11 23:31:00,72.1,69.7,29.98,SSE,167,0.0,0.0,92,0.00,,SKC,0.43,VWS V14.01,2013-06-12 04:31:00,
2013-06-11 23:36:00,72.1,69.7,29.98,SSE,167,0.0,0.0,92,0.00,,SKC,0.43,VWS V14.01,2013-06-12 04:36:00,
2013-06-11 23:40:00,72.1,69.7,29.98,SSE,167,0.0,0.0,92,0.00,,SKC,0.43,VWS V14.01,2013-06-12 04:40:00,
2013-06-11 23:41:00,72.1,70.0,29.98,SSE,167,0.0,0.0,93,0.00,,SKC,0.43,VWS V14.01,2013-06-12 04:41:00,
2013-06-11 23:46:00,72.1,70.0,29.98,SSE,167,0.0,0.0,93,0.00,,SKC,0.43,VWS V14.01,2013-06-12 04:46:00,
2013-06-11 23:50:00,72.1,70.0,29.98,SSE,167,0.0,0.0,93,0.00,,SKC,0.43,VWS V14.01,2013-06-12 04:50:00,
2013-06-11 23:51:00,72.2,70.1,29.98,SSE,167,0.0,0.0,93,0.00,,SKC,0.43,VWS V14.01,2013-06-12 04:51:00,
2013-06-11 23:56:00,72.1,70.0,29.98,SSE,167,0.0,0.0,93,0.00,,SKC,0.00,VWS V14.01,2013-06-12 04:56:00,